owner,sensor,date,latitude,longitude,vertical_datum,sea_water_practical_salinity,qcFlag 
COMPS,ioos:station:USF.COMPS:EGK:1,2008-12-01T00:00:00Z,27.6010,-82.7510,1.0,36.731,1111122 
COMPS,ioos:station:USF.COMPS:EGK:1,2008-12-01T00:06:00Z,27.6010,-82.7510,1.0,36.662,1111122 
COMPS,ioos:station:USF.COMPS:EGK:1,2008-12-01T00:12:00Z,27.6010,-82.7510,1.0,36.696,1111122 
COMPS,ioos:station:USF.COMPS:EGK:1,2008-12-01T00:18:00Z,27.6010,-82.7510,1.0,36.713,1111122 
COMPS,ioos:station:USF.COMPS:EGK:1,2008-12-01T00:24:00Z,27.6010,-82.7510,1.0,36.687,1111122 
COMPS,ioos:station:USF.COMPS:EGK:1,2008-12-01T00:30:00Z,27.6010,-82.7510,1.0,36.617,1111122 
COMPS,ioos:station:USF.COMPS:EGK:1,2008-12-01T00:36:00Z,27.6010,-82.7510,1.0,36.591,1111122 
COMPS,ioos:station:USF.COMPS:EGK:1,2008-12-01T00:42:00Z,27.6010,-82.7510,1.0,36.582,1111122 
COMPS,ioos:station:USF.COMPS:EGK:1,2008-12-01T00:48:00Z,27.6010,-82.7510,1.0,36.573,1111122 
COMPS,ioos:station:USF.COMPS:EGK:1,2008-12-01T00:54:00Z,27.6010,-82.7510,1.0,36.573,1111122 
COMPS,ioos:station:USF.COMPS:EGK:1,2008-12-01T01:00:00Z,27.6010,-82.7510,1.0,36.59,1111122 
COMPS,ioos:station:USF.COMPS:EGK:1,2008-12-01T01:06:00Z,27.6010,-82.7510,1.0,36.573,1111122 
COMPS,ioos:station:USF.COMPS:EGK:1,2008-12-01T01:12:00Z,27.6010,-82.7510,1.0,36.582,1111122 
COMPS,ioos:station:USF.COMPS:EGK:1,2008-12-01T01:18:00Z,27.6010,-82.7510,1.0,36.394,1111122 
COMPS,ioos:station:USF.COMPS:EGK:1,2008-12-01T01:24:00Z,27.6010,-82.7510,1.0,36.361,1111122 
COMPS,ioos:station:USF.COMPS:EGK:1,2008-12-01T01:30:00Z,27.6010,-82.7510,1.0,36.354,1111122 
COMPS,ioos:station:USF.COMPS:EGK:1,2008-12-01T01:36:00Z,27.6010,-82.7510,1.0,36.424,1111122 
COMPS,ioos:station:USF.COMPS:EGK:1,2008-12-01T01:42:00Z,27.6010,-82.7510,1.0,36.44,1111122 
COMPS,ioos:station:USF.COMPS:EGK:1,2008-12-01T01:48:00Z,27.6010,-82.7510,1.0,36.432,1111122 
COMPS,ioos:station:USF.COMPS:EGK:1,2008-12-01T01:54:00Z,27.6010,-82.7510,1.0,36.433,1111122 
COMPS,ioos:station:USF.COMPS:EGK:1,2008-12-01T02:00:00Z,27.6010,-82.7510,1.0,36.485,1111122 
COMPS,ioos:station:USF.COMPS:EGK:1,2008-12-01T02:06:00Z,27.6010,-82.7510,1.0,36.529,1111122 
COMPS,ioos:station:USF.COMPS:EGK:1,2008-12-01T02:12:00Z,27.6010,-82.7510,1.0,36.555,1111122 
COMPS,ioos:station:USF.COMPS:EGK:1,2008-12-01T02:18:00Z,27.6010,-82.7510,1.0,36.59,1111122 
COMPS,ioos:station:USF.COMPS:EGK:1,2008-12-01T02:24:00Z,27.6010,-82.7510,1.0,36.59,1111122 
COMPS,ioos:station:USF.COMPS:EGK:1,2008-12-01T02:30:00Z,27.6010,-82.7510,1.0,36.564,1111122 
COMPS,ioos:station:USF.COMPS:EGK:1,2008-12-01T02:36:00Z,27.6010,-82.7510,1.0,36.53,1111122 
COMPS,ioos:station:USF.COMPS:EGK:1,2008-12-01T02:42:00Z,27.6010,-82.7510,1.0,36.477,1111122 
COMPS,ioos:station:USF.COMPS:EGK:1,2008-12-01T02:48:00Z,27.6010,-82.7510,1.0,36.443,1111122 
COMPS,ioos:station:USF.COMPS:EGK:1,2008-12-01T02:54:00Z,27.6010,-82.7510,1.0,36.382,1111122 
COMPS,ioos:station:USF.COMPS:EGK:1,2008-12-01T03:00:00Z,27.6010,-82.7510,1.0,36.372,1111122 
COMPS,ioos:station:USF.COMPS:EGK:1,2008-12-01T03:06:00Z,27.6010,-82.7510,1.0,36.346,1111122 
COMPS,ioos:station:USF.COMPS:EGK:1,2008-12-01T03:12:00Z,27.6010,-82.7510,1.0,36.259,1111122 
COMPS,ioos:station:USF.COMPS:EGK:1,2008-12-01T03:18:00Z,27.6010,-82.7510,1.0,36.284,1111122 
COMPS,ioos:station:USF.COMPS:EGK:1,2008-12-01T03:24:00Z,27.6010,-82.7510,1.0,36.068,1111122 
COMPS,ioos:station:USF.COMPS:EGK:1,2008-12-01T03:30:00Z,27.6010,-82.7510,1.0,36.284,1111122 
COMPS,ioos:station:USF.COMPS:EGK:1,2008-12-01T03:36:00Z,27.6010,-82.7510,1.0,36.249,1111122 
COMPS,ioos:station:USF.COMPS:EGK:1,2008-12-01T03:42:00Z,27.6010,-82.7510,1.0,36.258,1111122 
COMPS,ioos:station:USF.COMPS:EGK:1,2008-12-01T03:48:00Z,27.6010,-82.7510,1.0,36.258,1111122 
COMPS,ioos:station:USF.COMPS:EGK:1,2008-12-01T03:54:00Z,27.6010,-82.7510,1.0,36.266,1111122 
COMPS,ioos:station:USF.COMPS:EGK:1,2008-12-01T04:00:00Z,27.6010,-82.7510,1.0,36.127,1111122 
COMPS,ioos:station:USF.COMPS:EGK:1,2008-12-01T04:06:00Z,27.6010,-82.7510,1.0,36.256,1111122 
COMPS,ioos:station:USF.COMPS:EGK:1,2008-12-01T04:12:00Z,27.6010,-82.7510,1.0,36.239,1111122 
COMPS,ioos:station:USF.COMPS:EGK:1,2008-12-01T04:18:00Z,27.6010,-82.7510,1.0,36.231,1111122 
COMPS,ioos:station:USF.COMPS:EGK:1,2008-12-01T04:24:00Z,27.6010,-82.7510,1.0,36.24,1111122 
COMPS,ioos:station:USF.COMPS:EGK:1,2008-12-01T04:30:00Z,27.6010,-82.7510,1.0,36.162,1111122 
COMPS,ioos:station:USF.COMPS:EGK:1,2008-12-01T04:36:00Z,27.6010,-82.7510,1.0,36.162,1111122 
COMPS,ioos:station:USF.COMPS:EGK:1,2008-12-01T04:42:00Z,27.6010,-82.7510,1.0,36.231,1111122 
COMPS,ioos:station:USF.COMPS:EGK:1,2008-12-01T04:48:00Z,27.6010,-82.7510,1.0,36.24,1111122 
COMPS,ioos:station:USF.COMPS:EGK:1,2008-12-01T04:54:00Z,27.6010,-82.7510,1.0,36.24,1111122 
COMPS,ioos:station:USF.COMPS:EGK:1,2008-12-01T05:00:00Z,27.6010,-82.7510,1.0,36.223,1111122 
COMPS,ioos:station:USF.COMPS:EGK:1,2008-12-01T05:06:00Z,27.6010,-82.7510,1.0,36.119,1111122 
COMPS,ioos:station:USF.COMPS:EGK:1,2008-12-01T05:12:00Z,27.6010,-82.7510,1.0,36.24,1111122 
COMPS,ioos:station:USF.COMPS:EGK:1,2008-12-01T05:18:00Z,27.6010,-82.7510,1.0,36.24,1111122 
COMPS,ioos:station:USF.COMPS:EGK:1,2008-12-01T05:24:00Z,27.6010,-82.7510,1.0,36.249,1111122 
COMPS,ioos:station:USF.COMPS:EGK:1,2008-12-01T05:30:00Z,27.6010,-82.7510,1.0,36.231,1111122 
COMPS,ioos:station:USF.COMPS:EGK:1,2008-12-01T05:36:00Z,27.6010,-82.7510,1.0,36.24,1111122 
COMPS,ioos:station:USF.COMPS:EGK:1,2008-12-01T05:42:00Z,27.6010,-82.7510,1.0,36.144,1111122 
COMPS,ioos:station:USF.COMPS:EGK:1,2008-12-01T05:48:00Z,27.6010,-82.7510,1.0,36.266,1111122 
COMPS,ioos:station:USF.COMPS:EGK:1,2008-12-01T05:54:00Z,27.6010,-82.7510,1.0,36.265,1111122 
COMPS,ioos:station:USF.COMPS:EGK:1,2008-12-01T06:00:00Z,27.6010,-82.7510,1.0,36.04,1111122 
COMPS,ioos:station:USF.COMPS:EGK:1,2008-12-01T06:06:00Z,27.6010,-82.7510,1.0,36.238,1111122 
COMPS,ioos:station:USF.COMPS:EGK:1,2008-12-01T06:12:00Z,27.6010,-82.7510,1.0,36.23,1111122 
COMPS,ioos:station:USF.COMPS:EGK:1,2008-12-01T06:18:00Z,27.6010,-82.7510,1.0,36.239,1111122 
COMPS,ioos:station:USF.COMPS:EGK:1,2008-12-01T06:24:00Z,27.6010,-82.7510,1.0,36.221,1111122 
COMPS,ioos:station:USF.COMPS:EGK:1,2008-12-01T06:30:00Z,27.6010,-82.7510,1.0,36.212,1111122 
COMPS,ioos:station:USF.COMPS:EGK:1,2008-12-01T06:36:00Z,27.6010,-82.7510,1.0,36.116,1111122 
COMPS,ioos:station:USF.COMPS:EGK:1,2008-12-01T06:42:00Z,27.6010,-82.7510,1.0,36.047,1111122 
COMPS,ioos:station:USF.COMPS:EGK:1,2008-12-01T06:48:00Z,27.6010,-82.7510,1.0,36.099,1111122 
COMPS,ioos:station:USF.COMPS:EGK:1,2008-12-01T06:54:00Z,27.6010,-82.7510,1.0,36.099,1111122 
COMPS,ioos:station:USF.COMPS:EGK:1,2008-12-01T07:00:00Z,27.6010,-82.7510,1.0,36.142,1111122 
COMPS,ioos:station:USF.COMPS:EGK:1,2008-12-01T07:06:00Z,27.6010,-82.7510,1.0,36.082,1111122 
COMPS,ioos:station:USF.COMPS:EGK:1,2008-12-01T07:12:00Z,27.6010,-82.7510,1.0,36.064,1111122 
COMPS,ioos:station:USF.COMPS:EGK:1,2008-12-01T07:18:00Z,27.6010,-82.7510,1.0,36.056,1111122 
COMPS,ioos:station:USF.COMPS:EGK:1,2008-12-01T07:24:00Z,27.6010,-82.7510,1.0,36.056,1111122 
COMPS,ioos:station:USF.COMPS:EGK:1,2008-12-01T07:30:00Z,27.6010,-82.7510,1.0,36.108,1111122 
COMPS,ioos:station:USF.COMPS:EGK:1,2008-12-01T07:36:00Z,27.6010,-82.7510,1.0,36.091,1111122 
COMPS,ioos:station:USF.COMPS:EGK:1,2008-12-01T07:42:00Z,27.6010,-82.7510,1.0,36.091,1111122 
COMPS,ioos:station:USF.COMPS:EGK:1,2008-12-01T07:48:00Z,27.6010,-82.7510,1.0,35.988,1111122 
COMPS,ioos:station:USF.COMPS:EGK:1,2008-12-01T07:54:00Z,27.6010,-82.7510,1.0,36.109,1111122 
COMPS,ioos:station:USF.COMPS:EGK:1,2008-12-01T08:00:00Z,27.6010,-82.7510,1.0,36.127,1111122 
COMPS,ioos:station:USF.COMPS:EGK:1,2008-12-01T08:06:00Z,27.6010,-82.7510,1.0,36.136,1111122 
COMPS,ioos:station:USF.COMPS:EGK:1,2008-12-01T08:12:00Z,27.6010,-82.7510,1.0,36.119,1111122 
COMPS,ioos:station:USF.COMPS:EGK:1,2008-12-01T08:18:00Z,27.6010,-82.7510,1.0,36.093,1111122 
COMPS,ioos:station:USF.COMPS:EGK:1,2008-12-01T08:24:00Z,27.6010,-82.7510,1.0,36.102,1111122 
COMPS,ioos:station:USF.COMPS:EGK:1,2008-12-01T08:30:00Z,27.6010,-82.7510,1.0,36.137,1111122 
COMPS,ioos:station:USF.COMPS:EGK:1,2008-12-01T08:36:00Z,27.6010,-82.7510,1.0,36.18,1111122 
COMPS,ioos:station:USF.COMPS:EGK:1,2008-12-01T08:42:00Z,27.6010,-82.7510,1.0,36.068,1111122 
COMPS,ioos:station:USF.COMPS:EGK:1,2008-12-01T08:48:00Z,27.6010,-82.7510,1.0,36.233,1111122 
COMPS,ioos:station:USF.COMPS:EGK:1,2008-12-01T08:54:00Z,27.6010,-82.7510,1.0,36.225,1111122 
COMPS,ioos:station:USF.COMPS:EGK:1,2008-12-01T09:00:00Z,27.6010,-82.7510,1.0,36.182,1111122 
COMPS,ioos:station:USF.COMPS:EGK:1,2008-12-01T09:06:00Z,27.6010,-82.7510,1.0,36.303,1111122 
COMPS,ioos:station:USF.COMPS:EGK:1,2008-12-01T09:12:00Z,27.6010,-82.7510,1.0,36.199,1111122 
COMPS,ioos:station:USF.COMPS:EGK:1,2008-12-01T09:18:00Z,27.6010,-82.7510,1.0,36.32,1111122 
COMPS,ioos:station:USF.COMPS:EGK:1,2008-12-01T09:24:00Z,27.6010,-82.7510,1.0,36.338,1111122 
COMPS,ioos:station:USF.COMPS:EGK:1,2008-12-01T09:30:00Z,27.6010,-82.7510,1.0,36.147,1111122 
COMPS,ioos:station:USF.COMPS:EGK:1,2008-12-01T09:36:00Z,27.6010,-82.7510,1.0,36.408,1111122 
COMPS,ioos:station:USF.COMPS:EGK:1,2008-12-01T09:42:00Z,27.6010,-82.7510,1.0,36.391,1111122 
COMPS,ioos:station:USF.COMPS:EGK:1,2008-12-01T09:48:00Z,27.6010,-82.7510,1.0,36.4,1111122 
COMPS,ioos:station:USF.COMPS:EGK:1,2008-12-01T09:54:00Z,27.6010,-82.7510,1.0,36.391,1111122 
COMPS,ioos:station:USF.COMPS:EGK:1,2008-12-01T10:00:00Z,27.6010,-82.7510,1.0,36.27,1111122 
COMPS,ioos:station:USF.COMPS:EGK:1,2008-12-01T10:06:00Z,27.6010,-82.7510,1.0,36.183,1111122 
COMPS,ioos:station:USF.COMPS:EGK:1,2008-12-01T10:12:00Z,27.6010,-82.7510,1.0,36.453,1111122 
COMPS,ioos:station:USF.COMPS:EGK:1,2008-12-01T10:18:00Z,27.6010,-82.7510,1.0,36.462,1111122 
COMPS,ioos:station:USF.COMPS:EGK:1,2008-12-01T10:24:00Z,27.6010,-82.7510,1.0,36.322,1111122 
COMPS,ioos:station:USF.COMPS:EGK:1,2008-12-01T10:30:00Z,27.6010,-82.7510,1.0,36.392,1111122 
COMPS,ioos:station:USF.COMPS:EGK:1,2008-12-01T10:36:00Z,27.6010,-82.7510,1.0,36.192,1111122 
COMPS,ioos:station:USF.COMPS:EGK:1,2008-12-01T10:42:00Z,27.6010,-82.7510,1.0,36.48,1111122 
COMPS,ioos:station:USF.COMPS:EGK:1,2008-12-01T10:48:00Z,27.6010,-82.7510,1.0,36.149,1111122 
COMPS,ioos:station:USF.COMPS:EGK:1,2008-12-01T10:54:00Z,27.6010,-82.7510,1.0,36.088,1111122 
COMPS,ioos:station:USF.COMPS:EGK:1,2008-12-01T11:00:00Z,27.6010,-82.7510,1.0,36.402,1111122 
COMPS,ioos:station:USF.COMPS:EGK:1,2008-12-01T11:06:00Z,27.6010,-82.7510,1.0,36.176,1111122 
COMPS,ioos:station:USF.COMPS:EGK:1,2008-12-01T11:12:00Z,27.6010,-82.7510,1.0,36.428,1111122 
COMPS,ioos:station:USF.COMPS:EGK:1,2008-12-01T11:18:00Z,27.6010,-82.7510,1.0,36.115,1111122 
COMPS,ioos:station:USF.COMPS:EGK:1,2008-12-01T11:24:00Z,27.6010,-82.7510,1.0,36.332,1111122 
COMPS,ioos:station:USF.COMPS:EGK:1,2008-12-01T11:30:00Z,27.6010,-82.7510,1.0,36.132,1111122 
COMPS,ioos:station:USF.COMPS:EGK:1,2008-12-01T11:36:00Z,27.6010,-82.7510,1.0,36.02,1111122 
COMPS,ioos:station:USF.COMPS:EGK:1,2008-12-01T11:42:00Z,27.6010,-82.7510,1.0,35.837,1111122 
COMPS,ioos:station:USF.COMPS:EGK:1,2008-12-01T11:48:00Z,27.6010,-82.7510,1.0,35.681,1111122 
COMPS,ioos:station:USF.COMPS:EGK:1,2008-12-01T11:54:00Z,27.6010,-82.7510,1.0,35.516,1111122 
COMPS,ioos:station:USF.COMPS:EGK:1,2008-12-01T14:00:00Z,27.6010,-82.7510,1.0,35.604,1111122 
COMPS,ioos:station:USF.COMPS:EGK:1,2008-12-01T14:06:00Z,27.6010,-82.7510,1.0,35.543,1111122 
COMPS,ioos:station:USF.COMPS:EGK:1,2008-12-01T14:12:00Z,27.6010,-82.7510,1.0,35.577,1111122 
COMPS,ioos:station:USF.COMPS:EGK:1,2008-12-01T14:18:00Z,27.6010,-82.7510,1.0,35.569,1111122 
COMPS,ioos:station:USF.COMPS:EGK:1,2008-12-01T14:24:00Z,27.6010,-82.7510,1.0,35.56,1111122 
COMPS,ioos:station:USF.COMPS:EGK:1,2008-12-01T14:30:00Z,27.6010,-82.7510,1.0,35.464,1111122 
COMPS,ioos:station:USF.COMPS:EGK:1,2008-12-01T14:36:00Z,27.6010,-82.7510,1.0,35.534,1111122 
COMPS,ioos:station:USF.COMPS:EGK:1,2008-12-01T14:42:00Z,27.6010,-82.7510,1.0,35.525,1111122 
COMPS,ioos:station:USF.COMPS:EGK:1,2008-12-01T14:48:00Z,27.6010,-82.7510,1.0,35.533,1111122 
COMPS,ioos:station:USF.COMPS:EGK:1,2008-12-01T14:54:00Z,27.6010,-82.7510,1.0,35.533,1111122 
COMPS,ioos:station:USF.COMPS:EGK:1,2008-12-01T15:00:00Z,27.6010,-82.7510,1.0,35.36,1111122 
COMPS,ioos:station:USF.COMPS:EGK:1,2008-12-01T15:06:00Z,27.6010,-82.7510,1.0,35.342,1111122 
COMPS,ioos:station:USF.COMPS:EGK:1,2008-12-01T15:12:00Z,27.6010,-82.7510,1.0,35.204,1111122 
COMPS,ioos:station:USF.COMPS:EGK:1,2008-12-01T15:18:00Z,27.6010,-82.7510,1.0,35.221,1111122 
COMPS,ioos:station:USF.COMPS:EGK:1,2008-12-01T15:24:00Z,27.6010,-82.7510,1.0,35.333,1111122 
COMPS,ioos:station:USF.COMPS:EGK:1,2008-12-01T15:30:00Z,27.6010,-82.7510,1.0,35.298,1111122 
COMPS,ioos:station:USF.COMPS:EGK:1,2008-12-01T15:36:00Z,27.6010,-82.7510,1.0,35.186,1111122 
COMPS,ioos:station:USF.COMPS:EGK:1,2008-12-01T15:42:00Z,27.6010,-82.7510,1.0,35.152,1111122 
COMPS,ioos:station:USF.COMPS:EGK:1,2008-12-01T15:48:00Z,27.6010,-82.7510,1.0,35.057,1111122 
COMPS,ioos:station:USF.COMPS:EGK:1,2008-12-01T15:54:00Z,27.6010,-82.7510,1.0,35.031,1111122 
COMPS,ioos:station:USF.COMPS:EGK:1,2008-12-01T16:00:00Z,27.6010,-82.7510,1.0,34.945,1111122 
COMPS,ioos:station:USF.COMPS:EGK:1,2008-12-01T16:06:00Z,27.6010,-82.7510,1.0,35.039,1111122 
COMPS,ioos:station:USF.COMPS:EGK:1,2008-12-01T16:12:00Z,27.6010,-82.7510,1.0,35.005,1111122 
COMPS,ioos:station:USF.COMPS:EGK:1,2008-12-01T16:18:00Z,27.6010,-82.7510,1.0,34.919,1111122 
COMPS,ioos:station:USF.COMPS:EGK:1,2008-12-01T16:24:00Z,27.6010,-82.7510,1.0,34.884,1111122 
COMPS,ioos:station:USF.COMPS:EGK:1,2008-12-01T16:30:00Z,27.6010,-82.7510,1.0,34.876,1111122 
COMPS,ioos:station:USF.COMPS:EGK:1,2008-12-01T16:36:00Z,27.6010,-82.7510,1.0,34.902,1111122 
COMPS,ioos:station:USF.COMPS:EGK:1,2008-12-01T16:42:00Z,27.6010,-82.7510,1.0,34.884,1111122 
COMPS,ioos:station:USF.COMPS:EGK:1,2008-12-01T16:48:00Z,27.6010,-82.7510,1.0,34.833,1111122 
COMPS,ioos:station:USF.COMPS:EGK:1,2008-12-01T16:54:00Z,27.6010,-82.7510,1.0,34.953,1111122 
COMPS,ioos:station:USF.COMPS:EGK:1,2008-12-01T17:00:00Z,27.6010,-82.7510,1.0,34.979,1111122 
COMPS,ioos:station:USF.COMPS:EGK:1,2008-12-01T17:06:00Z,27.6010,-82.7510,1.0,35.022,1111122 
COMPS,ioos:station:USF.COMPS:EGK:1,2008-12-01T17:12:00Z,27.6010,-82.7510,1.0,34.945,1111122 
COMPS,ioos:station:USF.COMPS:EGK:1,2008-12-01T17:18:00Z,27.6010,-82.7510,1.0,34.808,1111122 
COMPS,ioos:station:USF.COMPS:EGK:1,2008-12-01T17:24:00Z,27.6010,-82.7510,1.0,34.782,1111122 
COMPS,ioos:station:USF.COMPS:EGK:1,2008-12-01T17:30:00Z,27.6010,-82.7510,1.0,34.739,1111122 
COMPS,ioos:station:USF.COMPS:EGK:1,2008-12-01T17:36:00Z,27.6010,-82.7510,1.0,34.653,1111122 
COMPS,ioos:station:USF.COMPS:EGK:1,2008-12-01T17:42:00Z,27.6010,-82.7510,1.0,34.781,1111122 
COMPS,ioos:station:USF.COMPS:EGK:1,2008-12-01T17:48:00Z,27.6010,-82.7510,1.0,34.73,1111122 
COMPS,ioos:station:USF.COMPS:EGK:1,2008-12-01T17:54:00Z,27.6010,-82.7510,1.0,34.687,1111122 
COMPS,ioos:station:USF.COMPS:EGK:1,2008-12-01T18:00:00Z,27.6010,-82.7510,1.0,34.739,1111122 
COMPS,ioos:station:USF.COMPS:EGK:1,2008-12-01T18:06:00Z,27.6010,-82.7510,1.0,34.807,1111122 
COMPS,ioos:station:USF.COMPS:EGK:1,2008-12-01T18:12:00Z,27.6010,-82.7510,1.0,34.85,1111122 
COMPS,ioos:station:USF.COMPS:EGK:1,2008-12-01T18:18:00Z,27.6010,-82.7510,1.0,34.876,1111122 
COMPS,ioos:station:USF.COMPS:EGK:1,2008-12-01T18:24:00Z,27.6010,-82.7510,1.0,34.808,1111122 
COMPS,ioos:station:USF.COMPS:EGK:1,2008-12-01T18:30:00Z,27.6010,-82.7510,1.0,34.825,1111122 
COMPS,ioos:station:USF.COMPS:EGK:1,2008-12-01T18:36:00Z,27.6010,-82.7510,1.0,34.97,1111122 
COMPS,ioos:station:USF.COMPS:EGK:1,2008-12-01T18:42:00Z,27.6010,-82.7510,1.0,34.842,1111122 
COMPS,ioos:station:USF.COMPS:EGK:1,2008-12-01T18:48:00Z,27.6010,-82.7510,1.0,34.808,1111122 
COMPS,ioos:station:USF.COMPS:EGK:1,2008-12-01T18:54:00Z,27.6010,-82.7510,1.0,34.902,1111122 
COMPS,ioos:station:USF.COMPS:EGK:1,2008-12-01T19:00:00Z,27.6010,-82.7510,1.0,34.833,1111122 
COMPS,ioos:station:USF.COMPS:EGK:1,2008-12-01T19:06:00Z,27.6010,-82.7510,1.0,34.773,1111122 
COMPS,ioos:station:USF.COMPS:EGK:1,2008-12-01T19:12:00Z,27.6010,-82.7510,1.0,34.859,1111122 
COMPS,ioos:station:USF.COMPS:EGK:1,2008-12-01T19:18:00Z,27.6010,-82.7510,1.0,34.962,1111122 
COMPS,ioos:station:USF.COMPS:EGK:1,2008-12-01T19:24:00Z,27.6010,-82.7510,1.0,35.005,1111122 
COMPS,ioos:station:USF.COMPS:EGK:1,2008-12-01T19:30:00Z,27.6010,-82.7510,1.0,34.996,1111122 
COMPS,ioos:station:USF.COMPS:EGK:1,2008-12-01T19:36:00Z,27.6010,-82.7510,1.0,34.996,1111122 
COMPS,ioos:station:USF.COMPS:EGK:1,2008-12-01T19:42:00Z,27.6010,-82.7510,1.0,34.987,1111122 
COMPS,ioos:station:USF.COMPS:EGK:1,2008-12-01T19:48:00Z,27.6010,-82.7510,1.0,34.85,1111122 
COMPS,ioos:station:USF.COMPS:EGK:1,2008-12-01T19:54:00Z,27.6010,-82.7510,1.0,34.893,1111122 
COMPS,ioos:station:USF.COMPS:EGK:1,2008-12-01T20:00:00Z,27.6010,-82.7510,1.0,34.868,1111122 
COMPS,ioos:station:USF.COMPS:EGK:1,2008-12-01T20:06:00Z,27.6010,-82.7510,1.0,34.85,1111122 
COMPS,ioos:station:USF.COMPS:EGK:1,2008-12-01T20:12:00Z,27.6010,-82.7510,1.0,34.902,1111122 
COMPS,ioos:station:USF.COMPS:EGK:1,2008-12-01T20:18:00Z,27.6010,-82.7510,1.0,34.919,1111122 
COMPS,ioos:station:USF.COMPS:EGK:1,2008-12-01T20:24:00Z,27.6010,-82.7510,1.0,34.927,1111122 
COMPS,ioos:station:USF.COMPS:EGK:1,2008-12-01T20:30:00Z,27.6010,-82.7510,1.0,34.945,1111122 
COMPS,ioos:station:USF.COMPS:EGK:1,2008-12-01T20:36:00Z,27.6010,-82.7510,1.0,34.979,1111122 
COMPS,ioos:station:USF.COMPS:EGK:1,2008-12-01T20:42:00Z,27.6010,-82.7510,1.0,34.953,1111122 
COMPS,ioos:station:USF.COMPS:EGK:1,2008-12-01T20:48:00Z,27.6010,-82.7510,1.0,34.902,1111122 
COMPS,ioos:station:USF.COMPS:EGK:1,2008-12-01T20:54:00Z,27.6010,-82.7510,1.0,34.927,1111122 
COMPS,ioos:station:USF.COMPS:EGK:1,2008-12-01T21:00:00Z,27.6010,-82.7510,1.0,34.893,1111122 
COMPS,ioos:station:USF.COMPS:EGK:1,2008-12-01T21:06:00Z,27.6010,-82.7510,1.0,34.902,1111122 
COMPS,ioos:station:USF.COMPS:EGK:1,2008-12-01T21:12:00Z,27.6010,-82.7510,1.0,34.919,1111122 
COMPS,ioos:station:USF.COMPS:EGK:1,2008-12-01T21:18:00Z,27.6010,-82.7510,1.0,35.048,1111122 
COMPS,ioos:station:USF.COMPS:EGK:1,2008-12-01T21:24:00Z,27.6010,-82.7510,1.0,35.048,1111122 
COMPS,ioos:station:USF.COMPS:EGK:1,2008-12-01T21:30:00Z,27.6010,-82.7510,1.0,35.005,1111122 
COMPS,ioos:station:USF.COMPS:EGK:1,2008-12-01T21:36:00Z,27.6010,-82.7510,1.0,34.996,1111122 
COMPS,ioos:station:USF.COMPS:EGK:1,2008-12-01T21:42:00Z,27.6010,-82.7510,1.0,34.953,1111122 
COMPS,ioos:station:USF.COMPS:EGK:1,2008-12-01T21:48:00Z,27.6010,-82.7510,1.0,34.945,1111122 
COMPS,ioos:station:USF.COMPS:EGK:1,2008-12-01T21:54:00Z,27.6010,-82.7510,1.0,34.842,1111122 
COMPS,ioos:station:USF.COMPS:EGK:1,2008-12-01T22:00:00Z,27.6010,-82.7510,1.0,34.833,1111122 
COMPS,ioos:station:USF.COMPS:EGK:1,2008-12-01T22:06:00Z,27.6010,-82.7510,1.0,34.953,1111122 
COMPS,ioos:station:USF.COMPS:EGK:1,2008-12-01T22:12:00Z,27.6010,-82.7510,1.0,35.048,1111122 
COMPS,ioos:station:USF.COMPS:EGK:1,2008-12-01T22:18:00Z,27.6010,-82.7510,1.0,35.048,1111122 
COMPS,ioos:station:USF.COMPS:EGK:1,2008-12-01T22:24:00Z,27.6010,-82.7510,1.0,35.082,1111122 
COMPS,ioos:station:USF.COMPS:EGK:1,2008-12-01T22:30:00Z,27.6010,-82.7510,1.0,35.022,1111122 
COMPS,ioos:station:USF.COMPS:EGK:1,2008-12-01T22:36:00Z,27.6010,-82.7510,1.0,35.099,1111122 
COMPS,ioos:station:USF.COMPS:EGK:1,2008-12-01T22:42:00Z,27.6010,-82.7510,1.0,35.091,1111122 
COMPS,ioos:station:USF.COMPS:EGK:1,2008-12-01T22:48:00Z,27.6010,-82.7510,1.0,35.53,1111122 
COMPS,ioos:station:USF.COMPS:EGK:1,2008-12-01T22:54:00Z,27.6010,-82.7510,1.0,36.048,1111122 
COMPS,ioos:station:USF.COMPS:EGK:1,2008-12-01T23:00:00Z,27.6010,-82.7510,1.0,36.402,1111122 
COMPS,ioos:station:USF.COMPS:EGK:1,2008-12-01T23:06:00Z,27.6010,-82.7510,1.0,36.402,1111122 
COMPS,ioos:station:USF.COMPS:EGK:1,2008-12-01T23:12:00Z,27.6010,-82.7510,1.0,36.42,1111122 
COMPS,ioos:station:USF.COMPS:EGK:1,2008-12-01T23:18:00Z,27.6010,-82.7510,1.0,36.394,1111122 
COMPS,ioos:station:USF.COMPS:EGK:1,2008-12-01T23:24:00Z,27.6010,-82.7510,1.0,36.386,1111122 
COMPS,ioos:station:USF.COMPS:EGK:1,2008-12-01T23:30:00Z,27.6010,-82.7510,1.0,36.438,1111122 
COMPS,ioos:station:USF.COMPS:EGK:1,2008-12-01T23:36:00Z,27.6010,-82.7510,1.0,36.403,1111122 
COMPS,ioos:station:USF.COMPS:EGK:1,2008-12-01T23:42:00Z,27.6010,-82.7510,1.0,36.307,1111122 
COMPS,ioos:station:USF.COMPS:EGK:1,2008-12-01T23:48:00Z,27.6010,-82.7510,1.0,36.411,1111122 
COMPS,ioos:station:USF.COMPS:EGK:1,2008-12-01T23:54:00Z,27.6010,-82.7510,1.0,36.394,1111122 
COMPS,ioos:station:USF.COMPS:EGK:1,2008-12-02T00:00:00Z,27.6010,-82.7510,1.0,36.394,1111122 
COMPS,ioos:station:USF.COMPS:EGK:1,2008-12-02T00:06:00Z,27.6010,-82.7510,1.0,36.464,1111122 
COMPS,ioos:station:USF.COMPS:EGK:1,2008-12-02T00:12:00Z,27.6010,-82.7510,1.0,36.508,1111122 
COMPS,ioos:station:USF.COMPS:EGK:1,2008-12-02T00:18:00Z,27.6010,-82.7510,1.0,36.508,1111122 
COMPS,ioos:station:USF.COMPS:EGK:1,2008-12-02T00:24:00Z,27.6010,-82.7510,1.0,36.508,1111122 
COMPS,ioos:station:USF.COMPS:EGK:1,2008-12-02T00:30:00Z,27.6010,-82.7510,1.0,36.508,1111122 
COMPS,ioos:station:USF.COMPS:EGK:1,2008-12-02T00:36:00Z,27.6010,-82.7510,1.0,36.482,1111122 
COMPS,ioos:station:USF.COMPS:EGK:1,2008-12-02T00:42:00Z,27.6010,-82.7510,1.0,36.274,1111122 
COMPS,ioos:station:USF.COMPS:EGK:1,2008-12-02T00:48:00Z,27.6010,-82.7510,1.0,36.421,1111122 
COMPS,ioos:station:USF.COMPS:EGK:1,2008-12-02T00:54:00Z,27.6010,-82.7510,1.0,36.17,1111122 
COMPS,ioos:station:USF.COMPS:EGK:1,2008-12-02T01:00:00Z,27.6010,-82.7510,1.0,36.396,1111122 
COMPS,ioos:station:USF.COMPS:EGK:1,2008-12-02T01:06:00Z,27.6010,-82.7510,1.0,36.397,1111122 
COMPS,ioos:station:USF.COMPS:EGK:1,2008-12-02T01:12:00Z,27.6010,-82.7510,1.0,36.423,1111122 
COMPS,ioos:station:USF.COMPS:EGK:1,2008-12-02T01:18:00Z,27.6010,-82.7510,1.0,36.414,1111122 
COMPS,ioos:station:USF.COMPS:EGK:1,2008-12-02T01:24:00Z,27.6010,-82.7510,1.0,36.449,1111122 
COMPS,ioos:station:USF.COMPS:EGK:1,2008-12-02T01:30:00Z,27.6010,-82.7510,1.0,36.415,1111122 
COMPS,ioos:station:USF.COMPS:EGK:1,2008-12-02T01:36:00Z,27.6010,-82.7510,1.0,36.415,1111122 
COMPS,ioos:station:USF.COMPS:EGK:1,2008-12-02T01:42:00Z,27.6010,-82.7510,1.0,36.424,1111122 
COMPS,ioos:station:USF.COMPS:EGK:1,2008-12-02T01:48:00Z,27.6010,-82.7510,1.0,36.104,1111122 
COMPS,ioos:station:USF.COMPS:EGK:1,2008-12-02T01:54:00Z,27.6010,-82.7510,1.0,36.287,1111122 
COMPS,ioos:station:USF.COMPS:EGK:1,2008-12-02T02:00:00Z,27.6010,-82.7510,1.0,36.497,1111122 
COMPS,ioos:station:USF.COMPS:EGK:1,2008-12-02T02:06:00Z,27.6010,-82.7510,1.0,36.576,1111122 
COMPS,ioos:station:USF.COMPS:EGK:1,2008-12-02T02:12:00Z,27.6010,-82.7510,1.0,36.54,1111122 
COMPS,ioos:station:USF.COMPS:EGK:1,2008-12-02T02:18:00Z,27.6010,-82.7510,1.0,36.271,1111122 
COMPS,ioos:station:USF.COMPS:EGK:1,2008-12-02T02:24:00Z,27.6010,-82.7510,1.0,36.297,1111122 
COMPS,ioos:station:USF.COMPS:EGK:1,2008-12-02T02:30:00Z,27.6010,-82.7510,1.0,36.507,1111122 
COMPS,ioos:station:USF.COMPS:EGK:1,2008-12-02T02:36:00Z,27.6010,-82.7510,1.0,36.498,1111122 
COMPS,ioos:station:USF.COMPS:EGK:1,2008-12-02T02:42:00Z,27.6010,-82.7510,1.0,36.489,1111122 
COMPS,ioos:station:USF.COMPS:EGK:1,2008-12-02T02:48:00Z,27.6010,-82.7510,1.0,36.42,1111122 
COMPS,ioos:station:USF.COMPS:EGK:1,2008-12-02T02:54:00Z,27.6010,-82.7510,1.0,36.49,1111122 
COMPS,ioos:station:USF.COMPS:EGK:1,2008-12-02T03:00:00Z,27.6010,-82.7510,1.0,36.465,1111122 
COMPS,ioos:station:USF.COMPS:EGK:1,2008-12-02T03:06:00Z,27.6010,-82.7510,1.0,36.457,1111122 
COMPS,ioos:station:USF.COMPS:EGK:1,2008-12-02T03:12:00Z,27.6010,-82.7510,1.0,36.378,1111122 
COMPS,ioos:station:USF.COMPS:EGK:1,2008-12-02T03:18:00Z,27.6010,-82.7510,1.0,36.501,1111122 
COMPS,ioos:station:USF.COMPS:EGK:1,2008-12-02T03:24:00Z,27.6010,-82.7510,1.0,36.343,1111122 
COMPS,ioos:station:USF.COMPS:EGK:1,2008-12-02T03:30:00Z,27.6010,-82.7510,1.0,36.465,1111122 
COMPS,ioos:station:USF.COMPS:EGK:1,2008-12-02T03:36:00Z,27.6010,-82.7510,1.0,36.483,1111122 